Time,TemperatureF,DewpointF,PressureIn,WindDirection,WindDirectionDegrees,WindSpeedMPH,WindSpeedGustMPH,Humidity,HourlyPrecipIn,Conditions,Clouds,dailyrainin,SolarRadiationWatts/m^2,SoftwareType,DateUTC
2013-05-09 00:01:00,65.0,38.8,29.88,NNW,335,0.0,1.0,38,0.00,,,0.00,0,LWC V2.00 B727,2013-05-09 07:01:00,
2013-05-09 00:06:00,64.9,39.3,29.88,NNW,335,0.0,0.0,39,0.00,,,0.00,0,LWC V2.00 B727,2013-05-09 07:06:00,
2013-05-09 00:11:00,65.0,40.1,29.88,NNW,336,0.0,1.0,40,0.00,,,0.00,0,LWC V2.00 B727,2013-05-09 07:11:00,
2013-05-09 00:16:00,64.9,40.0,29.88,NNW,336,0.0,1.0,40,0.00,,,0.00,0,LWC V2.00 B727,2013-05-09 07:16:00,
2013-05-09 00:21:00,64.7,40.5,29.88,NNW,338,0.0,2.0,41,0.00,,,0.00,0,LWC V2.00 B727,2013-05-09 07:21:00,
2013-05-09 00:26:00,64.5,40.3,29.88,NNW,338,0.0,0.0,41,0.00,,,0.00,0,LWC V2.00 B727,2013-05-09 07:26:00,
2013-05-09 00:31:00,64.3,40.7,29.88,NNW,338,0.0,1.0,42,0.00,,,0.00,0,LWC V2.00 B727,2013-05-09 07:31:00,
2013-05-09 00:36:00,64.0,40.4,29.88,NNW,338,0.0,0.0,42,0.00,,,0.00,0,LWC V2.00 B727,2013-05-09 07:36:00,
2013-05-09 00:41:00,63.8,40.3,29.88,NNW,338,0.0,0.0,42,0.00,,,0.00,0,LWC V2.00 B727,2013-05-09 07:41:00,
2013-05-09 00:46:00,63.5,40.6,29.88,NNW,338,0.0,2.0,43,0.00,,,0.00,0,LWC V2.00 B727,2013-05-09 07:46:00,
2013-05-09 00:51:00,63.5,40.6,29.87,NNW,338,0.0,1.0,43,0.00,,,0.00,0,LWC V2.00 B727,2013-05-09 07:51:00,
2013-05-09 00:56:00,63.3,40.4,29.87,NNW,338,0.0,2.0,43,0.00,,,0.00,0,LWC V2.00 B727,2013-05-09 07:56:00,
2013-05-09 01:01:00,63.1,40.2,29.87,NNW,338,0.0,1.0,43,0.00,,,0.00,0,LWC V2.00 B727,2013-05-09 08:01:00,
2013-05-09 01:06:00,63.1,40.2,29.87,NNW,338,0.0,2.0,43,0.00,,,0.00,0,LWC V2.00 B727,2013-05-09 08:06:00,
2013-05-09 01:11:00,62.9,40.1,29.87,NNW,338,0.0,2.0,43,0.00,,,0.00,0,LWC V2.00 B727,2013-05-09 08:11:00,
2013-05-09 01:16:00,63.1,40.8,29.86,NNW,338,0.0,1.0,44,0.00,,,0.00,0,LWC V2.00 B727,2013-05-09 08:16:00,
2013-05-09 01:21:00,63.0,40.7,29.86,NNW,338,0.0,0.0,44,0.00,,,0.00,0,LWC V2.00 B727,2013-05-09 08:21:00,
2013-05-09 01:26:00,62.8,40.6,29.86,NNW,338,0.0,0.0,44,0.00,,,0.00,0,LWC V2.00 B727,2013-05-09 08:26:00,
2013-05-09 01:31:00,62.3,40.7,29.86,NNW,338,0.0,0.0,45,0.00,,,0.00,0,LWC V2.00 B727,2013-05-09 08:31:00,
2013-05-09 01:36:00,62.8,40.6,29.87,NNW,338,0.0,2.0,44,0.00,,,0.00,0,LWC V2.00 B727,2013-05-09 08:36:00,
2013-05-09 01:41:00,62.5,40.3,29.87,NNW,338,0.0,0.0,44,0.00,,,0.00,0,LWC V2.00 B727,2013-05-09 08:41:00,
2013-05-09 01:46:00,62.2,40.6,29.87,NNW,338,0.0,1.0,45,0.00,,,0.00,0,LWC V2.00 B727,2013-05-09 08:46:00,
2013-05-09 01:51:00,62.1,40.5,29.87,NNW,338,0.0,1.0,45,0.00,,,0.00,0,LWC V2.00 B727,2013-05-09 08:51:00,
2013-05-09 01:56:00,62.0,39.8,29.87,NNW,338,2.0,3.0,44,0.00,,,0.00,0,LWC V2.00 B727,2013-05-09 08:56:00,
2013-05-09 02:01:00,62.2,40.0,29.87,NNW,337,0.0,0.0,44,0.00,,,0.00,0,LWC V2.00 B727,2013-05-09 09:01:00,
2013-05-09 02:06:00,62.2,40.0,29.87,NNW,337,0.0,0.0,44,0.00,,,0.00,0,LWC V2.00 B727,2013-05-09 09:06:00,
2013-05-09 02:11:00,61.8,39.7,29.87,NNW,337,0.0,2.0,44,0.00,,,0.00,0,LWC V2.00 B727,2013-05-09 09:11:00,
2013-05-09 02:16:00,61.0,39.5,29.87,NNW,337,0.0,0.0,45,0.00,,,0.00,0,LWC V2.00 B727,2013-05-09 09:16:00,
2013-05-09 02:21:00,60.6,39.7,29.87,NNW,341,0.0,0.0,46,0.00,,,0.00,0,LWC V2.00 B727,2013-05-09 09:21:00,
2013-05-09 02:26:00,60.6,39.7,29.87,NNW,341,0.0,1.0,46,0.00,,,0.00,0,LWC V2.00 B727,2013-05-09 09:26:00,
2013-05-09 02:31:00,60.7,39.8,29.87,NNW,341,0.0,1.0,46,0.00,,,0.00,0,LWC V2.00 B727,2013-05-09 09:31:00,
2013-05-09 02:36:00,60.3,39.4,29.87,NNW,341,0.0,1.0,46,0.00,,,0.00,0,LWC V2.00 B727,2013-05-09 09:36:00,
2013-05-09 02:41:00,60.0,39.7,29.87,NNW,341,0.0,0.0,47,0.00,,,0.00,0,LWC V2.00 B727,2013-05-09 09:41:00,
2013-05-09 02:46:00,60.0,40.3,29.87,NNW,341,0.0,1.0,48,0.00,,,0.00,0,LWC V2.00 B727,2013-05-09 09:46:00,
2013-05-09 02:51:00,60.5,40.2,29.87,NNW,341,0.0,1.0,47,0.00,,,0.00,0,LWC V2.00 B727,2013-05-09 09:51:00,
2013-05-09 02:56:00,60.7,40.3,29.86,NNW,341,0.0,1.0,47,0.00,,,0.00,0,LWC V2.00 B727,2013-05-09 09:56:00,
2013-05-09 03:01:00,60.5,40.2,29.86,NNW,341,0.0,0.0,47,0.00,,,0.00,0,LWC V2.00 B727,2013-05-09 10:01:00,
2013-05-09 03:06:00,60.0,40.3,29.86,NNW,341,0.0,0.0,48,0.00,,,0.00,0,LWC V2.00 B727,2013-05-09 10:06:00,
2013-05-09 03:11:00,59.6,39.9,29.86,NNW,342,0.0,0.0,48,0.00,,,0.00,0,LWC V2.00 B727,2013-05-09 10:11:00,
2013-05-09 03:16:00,59.7,40.5,29.86,NNW,341,0.0,0.0,49,0.00,,,0.00,0,LWC V2.00 B727,2013-05-09 10:16:00,
2013-05-09 03:21:00,60.0,40.3,29.86,NNW,341,0.0,0.0,48,0.00,,,0.00,0,LWC V2.00 B727,2013-05-09 10:21:00,
2013-05-09 03:26:00,60.0,40.3,29.86,NNW,341,0.0,0.0,48,0.00,,,0.00,0,LWC V2.00 B727,2013-05-09 10:26:00,
2013-05-09 03:31:00,59.9,40.2,29.86,NNW,341,0.0,0.0,48,0.00,,,0.00,0,LWC V2.00 B727,2013-05-09 10:31:00,
2013-05-09 03:36:00,59.9,40.7,29.86,NNW,341,0.0,1.0,49,0.00,,,0.00,0,LWC V2.00 B727,2013-05-09 10:36:00,
2013-05-09 03:41:00,59.6,40.4,29.86,NNW,341,0.0,0.0,49,0.00,,,0.00,0,LWC V2.00 B727,2013-05-09 10:41:00,
2013-05-09 03:46:00,59.1,40.5,29.86,NNW,341,0.0,0.0,50,0.00,,,0.00,0,LWC V2.00 B727,2013-05-09 10:46:00,
2013-05-09 03:51:00,58.6,41.0,29.86,NNW,341,0.0,0.0,52,0.00,,,0.00,0,LWC V2.00 B727,2013-05-09 10:51:00,
2013-05-09 03:56:00,58.6,41.0,29.86,NNW,341,0.0,0.0,52,0.00,,,0.00,0,LWC V2.00 B727,2013-05-09 10:56:00,
2013-05-09 04:01:00,58.5,40.4,29.87,NNW,342,0.0,1.0,51,0.00,,,0.00,0,LWC V2.00 B727,2013-05-09 11:01:00,
2013-05-09 04:06:00,58.5,40.4,29.86,NNW,342,0.0,0.0,51,0.00,,,0.00,0,LWC V2.00 B727,2013-05-09 11:06:00,
2013-05-09 04:11:00,58.5,40.4,29.86,NNW,342,0.0,1.0,51,0.00,,,0.00,0,LWC V2.00 B727,2013-05-09 11:11:00,
2013-05-09 04:16:00,58.7,40.6,29.86,NNW,342,0.0,0.0,51,0.00,,,0.00,0,LWC V2.00 B727,2013-05-09 11:16:00,
2013-05-09 04:21:00,58.5,40.4,29.86,NNW,342,0.0,0.0,51,0.00,,,0.00,0,LWC V2.00 B727,2013-05-09 11:21:00,
2013-05-09 04:26:00,58.2,40.2,29.86,NNW,342,0.0,0.0,51,0.00,,,0.00,0,LWC V2.00 B727,2013-05-09 11:26:00,
2013-05-09 04:31:00,58.0,40.5,29.86,NNW,342,0.0,0.0,52,0.00,,,0.00,0,LWC V2.00 B727,2013-05-09 11:31:00,
2013-05-09 04:36:00,58.0,40.5,29.86,NNW,342,0.0,0.0,52,0.00,,,0.00,0,LWC V2.00 B727,2013-05-09 11:36:00,
2013-05-09 04:41:00,58.4,40.8,29.86,NNW,342,0.0,1.0,52,0.00,,,0.00,0,LWC V2.00 B727,2013-05-09 11:41:00,
2013-05-09 04:46:00,58.6,41.0,29.86,NNW,342,0.0,0.0,52,0.00,,,0.00,0,LWC V2.00 B727,2013-05-09 11:46:00,
2013-05-09 04:51:00,58.6,41.0,29.86,NNW,342,0.0,0.0,52,0.00,,,0.00,0,LWC V2.00 B727,2013-05-09 11:51:00,
2013-05-09 04:56:00,58.3,40.8,29.86,NNW,342,0.0,0.0,52,0.00,,,0.00,0,LWC V2.00 B727,2013-05-09 11:56:00,
2013-05-09 05:01:00,58.2,41.2,29.87,NNW,342,0.0,0.0,53,0.00,,,0.00,0,LWC V2.00 B727,2013-05-09 12:01:00,
2013-05-09 05:06:00,58.2,41.2,29.87,NNW,342,0.0,0.0,53,0.00,,,0.00,0,LWC V2.00 B727,2013-05-09 12:06:00,
2013-05-09 05:11:00,58.3,40.8,29.87,NNW,342,0.0,0.0,52,0.00,,,0.00,0,LWC V2.00 B727,2013-05-09 12:11:00,
2013-05-09 05:16:00,58.1,41.1,29.87,NNW,342,0.0,0.0,53,0.00,,,0.00,0,LWC V2.00 B727,2013-05-09 12:16:00,
2013-05-09 05:21:00,58.1,41.1,29.86,NNW,342,0.0,0.0,53,0.00,,,0.00,0,LWC V2.00 B727,2013-05-09 12:21:00,
2013-05-09 05:26:00,58.2,41.2,29.86,NNW,342,0.0,0.0,53,0.00,,,0.00,0,LWC V2.00 B727,2013-05-09 12:26:00,
2013-05-09 05:31:00,58.4,40.8,29.87,NNW,342,0.0,0.0,52,0.00,,,0.00,5,LWC V2.00 B727,2013-05-09 12:31:00,
2013-05-09 05:36:00,58.0,41.0,29.87,NNW,342,0.0,1.0,53,0.00,,,0.00,9,LWC V2.00 B727,2013-05-09 12:36:00,
2013-05-09 05:41:00,58.0,41.0,29.87,NNW,342,0.0,0.0,53,0.00,,,0.00,12,LWC V2.00 B727,2013-05-09 12:41:00,
2013-05-09 05:46:00,58.2,41.2,29.87,NNW,342,0.0,0.0,53,0.00,,,0.00,14,LWC V2.00 B727,2013-05-09 12:46:00,
2013-05-09 05:51:00,58.2,41.2,29.87,NNW,342,0.0,0.0,53,0.00,,,0.00,18,LWC V2.00 B727,2013-05-09 12:51:00,
2013-05-09 05:56:00,57.6,41.1,29.87,NNW,342,0.0,0.0,54,0.00,,,0.00,19,LWC V2.00 B727,2013-05-09 12:56:00,
2013-05-09 06:00:00,57.2,40.7,29.87,NNW,342,0.0,0.0,54,0.00,,,0.00,,LWC V2.00 B727,2013-05-09 13:00:00,
2013-05-09 06:01:00,57.1,41.1,29.88,NNW,342,0.0,0.0,55,0.00,,,0.00,23,LWC V2.00 B727,2013-05-09 13:01:00,
2013-05-09 06:10:00,56.9,40.9,29.88,NNW,338,0.0,1.0,55,0.00,,,0.00,,LWC V2.00 B727,2013-05-09 13:10:00,
2013-05-09 06:20:00,56.9,40.9,29.88,NNW,338,0.0,1.0,55,0.00,,,0.00,,LWC V2.00 B727,2013-05-09 13:20:00,
2013-05-09 06:30:00,59.1,42.0,29.87,NNW,338,0.0,2.0,53,0.00,,,0.00,,LWC V2.00 B727,2013-05-09 13:30:00,
2013-05-09 06:40:00,59.1,42.0,29.87,NNW,338,0.0,2.0,53,0.00,,,0.00,,LWC V2.00 B727,2013-05-09 13:40:00,
2013-05-09 06:50:00,59.1,42.0,29.87,NNW,338,0.0,2.0,53,0.00,,,0.00,,LWC V2.00 B727,2013-05-09 13:50:00,
2013-05-09 07:00:00,62.5,42.5,29.88,NNW,338,0.0,1.0,48,0.00,,,0.00,,LWC V2.00 B727,2013-05-09 14:00:00,
2013-05-09 07:10:00,62.5,42.5,29.88,NNW,338,0.0,1.0,48,0.00,,,0.00,,LWC V2.00 B727,2013-05-09 14:10:00,
2013-05-09 07:20:00,62.5,42.5,29.88,NNW,338,0.0,1.0,48,0.00,,,0.00,,LWC V2.00 B727,2013-05-09 14:20:00,
2013-05-09 07:30:00,63.4,42.3,29.89,North,0,0.0,3.0,46,0.00,,,0.00,,LWC V2.00 B727,2013-05-09 14:30:00,
2013-05-09 07:40:00,63.4,42.3,29.89,North,0,0.0,3.0,46,0.00,,,0.00,,LWC V2.00 B727,2013-05-09 14:40:00,
2013-05-09 07:50:00,63.4,42.3,29.89,North,0,0.0,3.0,46,0.00,,,0.00,,LWC V2.00 B727,2013-05-09 14:50:00,
2013-05-09 08:00:00,65.0,41.3,29.89,WSW,248,1.0,6.0,42,0.00,,,0.00,,LWC V2.00 B727,2013-05-09 15:00:00,
2013-05-09 08:10:00,65.0,41.3,29.89,WSW,248,1.0,6.0,42,0.00,,,0.00,,LWC V2.00 B727,2013-05-09 15:10:00,
2013-05-09 08:20:00,65.0,41.3,29.89,WSW,248,1.0,6.0,42,0.00,,,0.00,,LWC V2.00 B727,2013-05-09 15:20:00,
2013-05-09 08:30:00,66.4,40.7,29.89,WSW,248,1.0,5.0,39,0.00,,,0.00,,LWC V2.00 B727,2013-05-09 15:30:00,
2013-05-09 08:40:00,66.4,40.7,29.89,WSW,248,1.0,5.0,39,0.00,,,0.00,,LWC V2.00 B727,2013-05-09 15:40:00,
2013-05-09 08:50:00,66.4,40.7,29.89,WSW,248,1.0,5.0,39,0.00,,,0.00,,LWC V2.00 B727,2013-05-09 15:50:00,
2013-05-09 09:00:00,67.7,42.5,29.88,SW,225,1.0,7.0,40,0.00,,,0.00,,LWC V2.00 B727,2013-05-09 16:00:00,
2013-05-09 09:10:00,67.7,42.5,29.88,SW,225,1.0,7.0,40,0.00,,,0.00,,LWC V2.00 B727,2013-05-09 16:10:00,
2013-05-09 09:20:00,67.7,42.5,29.88,SW,225,1.0,7.0,40,0.00,,,0.00,,LWC V2.00 B727,2013-05-09 16:20:00,
2013-05-09 09:30:00,69.2,42.5,29.88,SW,225,0.0,5.0,38,0.00,,,0.00,,LWC V2.00 B727,2013-05-09 16:30:00,
2013-05-09 09:40:00,69.2,42.5,29.88,SW,225,0.0,5.0,38,0.00,,,0.00,,LWC V2.00 B727,2013-05-09 16:40:00,
2013-05-09 09:50:00,69.2,42.5,29.88,SW,225,0.0,5.0,38,0.00,,,0.00,,LWC V2.00 B727,2013-05-09 16:50:00,
2013-05-09 10:00:00,71.1,42.0,29.88,WSW,248,1.0,8.0,35,0.00,,,0.00,,LWC V2.00 B727,2013-05-09 17:00:00,
2013-05-09 10:10:00,71.1,42.0,29.88,WSW,248,1.0,8.0,35,0.00,,,0.00,,LWC V2.00 B727,2013-05-09 17:10:00,
2013-05-09 10:20:00,71.1,42.0,29.88,WSW,248,1.0,8.0,35,0.00,,,0.00,,LWC V2.00 B727,2013-05-09 17:20:00,
2013-05-09 10:30:00,72.3,42.3,29.88,SW,225,2.0,9.0,34,0.00,,,0.00,,LWC V2.00 B727,2013-05-09 17:30:00,
2013-05-09 10:40:00,72.3,42.3,29.88,SW,225,2.0,9.0,34,0.00,,,0.00,,LWC V2.00 B727,2013-05-09 17:40:00,
2013-05-09 10:50:00,72.3,42.3,29.88,SW,225,2.0,9.0,34,0.00,,,0.00,,LWC V2.00 B727,2013-05-09 17:50:00,
2013-05-09 11:00:00,73.2,41.6,29.87,SW,225,1.0,8.0,32,0.00,,,0.00,,LWC V2.00 B727,2013-05-09 18:00:00,
2013-05-09 11:10:00,73.2,41.6,29.87,SW,225,1.0,8.0,32,0.00,,,0.00,,LWC V2.00 B727,2013-05-09 18:10:00,
2013-05-09 11:20:00,73.2,41.6,29.87,SW,225,1.0,8.0,32,0.00,,,0.00,,LWC V2.00 B727,2013-05-09 18:20:00,
2013-05-09 11:30:00,73.3,40.8,29.86,SW,225,2.0,10.0,31,0.00,,,0.00,,LWC V2.00 B727,2013-05-09 18:30:00,
2013-05-09 11:40:00,73.3,40.8,29.86,SW,225,2.0,10.0,31,0.00,,,0.00,,LWC V2.00 B727,2013-05-09 18:40:00,
2013-05-09 11:50:00,73.3,40.8,29.86,SW,225,2.0,10.0,31,0.00,,,0.00,,LWC V2.00 B727,2013-05-09 18:50:00,
2013-05-09 12:00:00,73.3,40.8,29.86,SW,225,2.0,10.0,31,0.00,,,0.00,,LWC V2.00 B727,2013-05-09 19:00:00,
2013-05-09 12:10:00,76.5,40.9,29.86,SW,225,2.0,11.0,28,0.00,,,0.00,,LWC V2.00 B727,2013-05-09 19:10:00,
2013-05-09 12:20:00,76.5,40.9,29.86,SW,225,2.0,11.0,28,0.00,,,0.00,,LWC V2.00 B727,2013-05-09 19:20:00,
2013-05-09 12:30:00,76.5,40.9,29.86,SW,225,2.0,11.0,28,0.00,,,0.00,,LWC V2.00 B727,2013-05-09 19:30:00,
2013-05-09 12:40:00,78.0,39.3,29.85,WSW,248,3.0,12.0,25,0.00,,,0.00,,LWC V2.00 B727,2013-05-09 19:40:00,
2013-05-09 12:50:00,78.0,39.3,29.85,WSW,248,3.0,12.0,25,0.00,,,0.00,,LWC V2.00 B727,2013-05-09 19:50:00,
2013-05-09 13:00:00,78.0,39.3,29.85,WSW,248,3.0,12.0,25,0.00,,,0.00,,LWC V2.00 B727,2013-05-09 20:00:00,
2013-05-09 13:10:00,77.6,30.7,29.84,SW,225,3.0,12.0,18,0.00,,,0.00,,LWC V2.00 B727,2013-05-09 20:10:00,
2013-05-09 13:20:00,77.6,30.7,29.84,SW,225,3.0,12.0,18,0.00,,,0.00,,LWC V2.00 B727,2013-05-09 20:20:00,
2013-05-09 13:30:00,77.6,30.7,29.84,SW,225,3.0,12.0,18,0.00,,,0.00,,LWC V2.00 B727,2013-05-09 20:30:00,
2013-05-09 13:40:00,79.8,22.7,29.83,WSW,248,3.0,11.0,12,0.00,,,0.00,,LWC V2.00 B727,2013-05-09 20:40:00,
2013-05-09 13:50:00,79.8,22.7,29.83,WSW,248,3.0,11.0,12,0.00,,,0.00,,LWC V2.00 B727,2013-05-09 20:50:00,
2013-05-09 14:00:00,79.8,22.7,29.83,WSW,248,3.0,11.0,12,0.00,,,0.00,,LWC V2.00 B727,2013-05-09 21:00:00,
2013-05-09 14:10:00,80.5,18.9,29.82,WSW,248,2.0,11.0,10,0.00,,,0.00,,LWC V2.00 B727,2013-05-09 21:10:00,
2013-05-09 14:20:00,80.5,18.9,29.82,WSW,248,2.0,11.0,10,0.00,,,0.00,,LWC V2.00 B727,2013-05-09 21:20:00,
2013-05-09 14:30:00,80.5,18.9,29.82,WSW,248,2.0,11.0,10,0.00,,,0.00,,LWC V2.00 B727,2013-05-09 21:30:00,
2013-05-09 14:40:00,80.2,26.7,29.81,WSW,248,3.0,13.0,14,0.00,,,0.00,,LWC V2.00 B727,2013-05-09 21:40:00,
2013-05-09 14:50:00,80.2,26.7,29.81,WSW,248,3.0,13.0,14,0.00,,,0.00,,LWC V2.00 B727,2013-05-09 21:50:00,
2013-05-09 15:00:00,80.2,26.7,29.81,WSW,248,3.0,13.0,14,0.00,,,0.00,,LWC V2.00 B727,2013-05-09 22:00:00,
2013-05-09 15:10:00,80.3,26.8,29.80,SW,225,3.0,12.0,14,0.00,,,0.00,,LWC V2.00 B727,2013-05-09 22:10:00,
2013-05-09 15:20:00,80.3,26.8,29.80,SW,225,3.0,12.0,14,0.00,,,0.00,,LWC V2.00 B727,2013-05-09 22:20:00,
2013-05-09 15:30:00,80.3,26.8,29.80,SW,225,3.0,12.0,14,0.00,,,0.00,,LWC V2.00 B727,2013-05-09 22:30:00,
2013-05-09 15:40:00,80.4,26.8,29.79,SW,225,3.0,12.0,14,0.00,,,0.00,,LWC V2.00 B727,2013-05-09 22:40:00,
2013-05-09 15:50:00,80.4,26.8,29.79,SW,225,3.0,12.0,14,0.00,,,0.00,,LWC V2.00 B727,2013-05-09 22:50:00,
2013-05-09 16:00:00,80.4,26.8,29.79,SW,225,3.0,12.0,14,0.00,,,0.00,,LWC V2.00 B727,2013-05-09 23:00:00,
2013-05-09 16:10:00,80.4,23.1,29.79,WSW,248,2.0,11.0,12,0.00,,,0.00,,LWC V2.00 B727,2013-05-09 23:10:00,
2013-05-09 16:20:00,80.4,23.1,29.79,WSW,248,2.0,11.0,12,0.00,,,0.00,,LWC V2.00 B727,2013-05-09 23:20:00,
2013-05-09 16:30:00,80.4,23.1,29.79,WSW,248,2.0,11.0,12,0.00,,,0.00,,LWC V2.00 B727,2013-05-09 23:30:00,
2013-05-09 16:40:00,79.4,22.4,29.78,West,270,2.0,12.0,12,0.00,,,0.00,,LWC V2.00 B727,2013-05-09 23:40:00,
2013-05-09 16:50:00,79.4,22.4,29.78,West,270,2.0,12.0,12,0.00,,,0.00,,LWC V2.00 B727,2013-05-09 23:50:00,
2013-05-09 17:00:00,79.6,26.2,29.78,West,270,3.0,10.0,14,0.00,,,0.00,,LWC V2.00 B727,2013-05-10 00:00:00,
2013-05-09 17:10:00,79.6,26.2,29.78,West,270,3.0,10.0,14,0.00,,,0.00,,LWC V2.00 B727,2013-05-10 00:10:00,
2013-05-09 17:20:00,79.6,26.2,29.78,West,270,3.0,10.0,14,0.00,,,0.00,,LWC V2.00 B727,2013-05-10 00:20:00,
2013-05-09 17:30:00,78.2,26.8,29.78,WSW,248,1.0,8.0,15,0.00,,,0.00,,LWC V2.00 B727,2013-05-10 00:30:00,
2013-05-09 17:40:00,78.2,26.8,29.78,WSW,248,1.0,8.0,15,0.00,,,0.00,,LWC V2.00 B727,2013-05-10 00:40:00,
2013-05-09 17:50:00,78.2,26.8,29.78,WSW,248,1.0,8.0,15,0.00,,,0.00,,LWC V2.00 B727,2013-05-10 00:50:00,
2013-05-09 18:00:00,77.7,29.4,29.78,WSW,248,1.0,10.0,17,0.00,,,0.00,,LWC V2.00 B727,2013-05-10 01:00:00,
2013-05-09 18:10:00,77.7,29.4,29.78,WSW,248,1.0,10.0,17,0.00,,,0.00,,LWC V2.00 B727,2013-05-10 01:10:00,
2013-05-09 18:20:00,77.7,29.4,29.78,WSW,248,1.0,10.0,17,0.00,,,0.00,,LWC V2.00 B727,2013-05-10 01:20:00,
2013-05-09 18:30:00,76.5,31.2,29.78,WSW,248,1.0,8.0,19,0.00,,,0.00,,LWC V2.00 B727,2013-05-10 01:30:00,
2013-05-09 18:40:00,76.5,31.2,29.78,WSW,248,1.0,8.0,19,0.00,,,0.00,,LWC V2.00 B727,2013-05-10 01:40:00,
2013-05-09 18:50:00,76.5,31.2,29.78,WSW,248,1.0,8.0,19,0.00,,,0.00,,LWC V2.00 B727,2013-05-10 01:50:00,
2013-05-09 19:00:00,74.3,30.6,29.79,WSW,248,0.0,5.0,20,0.00,,,0.00,,LWC V2.00 B727,2013-05-10 02:00:00,
2013-05-09 19:10:00,74.3,30.6,29.79,WSW,248,0.0,5.0,20,0.00,,,0.00,,LWC V2.00 B727,2013-05-10 02:10:00,
2013-05-09 19:20:00,74.3,30.6,29.79,WSW,248,0.0,5.0,20,0.00,,,0.00,,LWC V2.00 B727,2013-05-10 02:20:00,
2013-05-09 19:30:00,72.2,30.1,29.80,WNW,292,0.0,3.0,21,0.00,,,0.00,,LWC V2.00 B727,2013-05-10 02:30:00,
2013-05-09 19:40:00,72.2,30.1,29.80,WNW,292,0.0,3.0,21,0.00,,,0.00,,LWC V2.00 B727,2013-05-10 02:40:00,
2013-05-09 19:50:00,72.2,30.1,29.80,WNW,292,0.0,3.0,21,0.00,,,0.00,,LWC V2.00 B727,2013-05-10 02:50:00,
2013-05-09 20:00:00,69.7,30.2,29.81,North,0,0.0,0.0,23,0.00,,,0.00,,LWC V2.00 B727,2013-05-10 03:00:00,
2013-05-09 20:10:00,69.7,30.2,29.81,North,0,0.0,0.0,23,0.00,,,0.00,,LWC V2.00 B727,2013-05-10 03:10:00,
2013-05-09 20:20:00,69.7,30.2,29.81,North,0,0.0,0.0,23,0.00,,,0.00,,LWC V2.00 B727,2013-05-10 03:20:00,
2013-05-09 20:30:00,67.9,30.8,29.82,WNW,292,0.0,1.0,25,0.00,,,0.00,,LWC V2.00 B727,2013-05-10 03:30:00,
2013-05-09 20:40:00,67.9,30.8,29.82,WNW,292,0.0,1.0,25,0.00,,,0.00,,LWC V2.00 B727,2013-05-10 03:40:00,
2013-05-09 20:50:00,67.9,30.8,29.82,WNW,292,0.0,1.0,25,0.00,,,0.00,,LWC V2.00 B727,2013-05-10 03:50:00,
2013-05-09 21:00:00,68.6,31.4,29.83,NNE,22,1.0,6.0,25,0.00,,,0.00,,LWC V2.00 B727,2013-05-10 04:00:00,
2013-05-09 21:10:00,68.6,31.4,29.83,NNE,22,1.0,6.0,25,0.00,,,0.00,,LWC V2.00 B727,2013-05-10 04:10:00,
2013-05-09 21:20:00,68.6,31.4,29.83,NNE,22,1.0,6.0,25,0.00,,,0.00,,LWC V2.00 B727,2013-05-10 04:20:00,
2013-05-09 21:30:00,68.6,31.4,29.83,NNE,22,1.0,6.0,25,0.00,,,0.00,,LWC V2.00 B727,2013-05-10 04:30:00,
2013-05-09 21:40:00,68.4,31.2,29.84,NE,45,1.0,5.0,25,0.00,,,0.00,,LWC V2.00 B727,2013-05-10 04:40:00,
2013-05-09 21:50:00,68.4,31.2,29.84,NE,45,1.0,5.0,25,0.00,,,0.00,,LWC V2.00 B727,2013-05-10 04:50:00,
2013-05-09 22:00:00,68.4,31.2,29.84,NE,45,1.0,5.0,25,0.00,,,0.00,,LWC V2.00 B727,2013-05-10 05:00:00,
2013-05-09 22:10:00,67.2,31.2,29.84,NE,45,0.0,5.0,26,0.00,,,0.00,,LWC V2.00 B727,2013-05-10 05:10:00,
2013-05-09 22:20:00,67.2,31.2,29.84,NE,45,0.0,5.0,26,0.00,,,0.00,,LWC V2.00 B727,2013-05-10 05:20:00,
2013-05-09 22:30:00,67.2,31.2,29.84,NE,45,0.0,5.0,26,0.00,,,0.00,,LWC V2.00 B727,2013-05-10 05:30:00,
2013-05-09 22:40:00,66.5,31.5,29.84,ENE,68,0.0,2.0,27,0.00,,,0.00,,LWC V2.00 B727,2013-05-10 05:40:00,
2013-05-09 22:50:00,66.5,31.5,29.84,ENE,68,0.0,2.0,27,0.00,,,0.00,,LWC V2.00 B727,2013-05-10 05:50:00,
2013-05-09 23:00:00,66.5,31.5,29.84,ENE,68,0.0,2.0,27,0.00,,,0.00,,LWC V2.00 B727,2013-05-10 06:00:00,
2013-05-09 23:10:00,66.3,32.2,29.84,ENE,68,0.0,3.0,28,0.00,,,0.00,,LWC V2.00 B727,2013-05-10 06:10:00,
2013-05-09 23:20:00,66.3,32.2,29.84,ENE,68,0.0,3.0,28,0.00,,,0.00,,LWC V2.00 B727,2013-05-10 06:20:00,
2013-05-09 23:30:00,66.3,32.2,29.84,ENE,68,0.0,3.0,28,0.00,,,0.00,,LWC V2.00 B727,2013-05-10 06:30:00,
2013-05-09 23:40:00,64.0,31.9,29.85,NE,45,0.0,4.0,30,0.00,,,0.00,,LWC V2.00 B727,2013-05-10 06:40:00,
2013-05-09 23:50:00,64.0,31.9,29.85,NE,45,0.0,4.0,30,0.00,,,0.00,,LWC V2.00 B727,2013-05-10 06:50:00,